Regional Weather Roundup
Issued by NWS

Home | Current Version | Previous Version | Graphics & Text | Print | Product List | Glossary Off
Versions: 1 2 3 4 5 6 7 8 9 10 11 12 13 14 15 16 17 18 19 20 21 22 23 24 25 26 27 28 29 30 31 32 33 34 35 36 37 38 39 40 41 42 43 44 45 46 47 48 49 50

000
ASUS43 KTOP 220359
RWRKS

WEATHER ROUNDUP FOR KANSAS
NATIONAL WEATHER SERVICE GOODLAND KS
1000 PM CST TUE FEB 21 2017

NOTE:  "FAIR" INDICATES FEW OR NO CLOUDS BELOW 12,000 FEET WITH NO
SIGNIFICANT WEATHER AND/OR OBSTRUCTIONS TO VISIBILITY.

KSZ001>006-013>018-027>032-041>047-220500-
NORTHWEST KANSAS

CITY           SKY/WX    TMP DP  RH WIND       PRES   REMARKS
GOODLAND       CLOUDY    60  18  19 SW18      29.88F
HAYS             N/A     50  26  39 SW6       29.87F
HILL CITY      CLEAR     58  26  29 SW9       29.85S
RUSSELL        CLEAR     51  26  37 S13       29.85F
$$

KSZ061>065-074>080-084>089-220500-
SOUTHWEST KANSAS

CITY           SKY/WX    TMP DP  RH WIND       PRES   REMARKS
DODGE CITY     CLEAR     52  21  29 S10       29.91F
ELKHART          N/A     57  23  26 S12         N/A
GARDEN CITY    CLEAR     50  20  30 S6        29.92S
GREAT BEND     CLEAR     47  27  45 S10       29.89F
LIBERAL        CLEAR     50  19  29 S7        29.94F
$$

KSZ066>073-081>083-090>101-220500-
SOUTHEAST KANSAS

CITY           SKY/WX    TMP DP  RH WIND       PRES   REMARKS
CHANUTE        CLEAR     47  40  76 CALM      29.92S
COFFEYVILLE    CLEAR     48  44  86 CALM      29.94R
HUTCHINSON     CLEAR     47  37  68 S5        29.91S
MEDICINE LODGE   N/A     53  36  52 SE6       29.93R
NEWTON         CLEAR     50  38  63 S10       29.92S
PARSONS        CLEAR     44  40  85 CALM      29.94R
WICHITA INTL   CLEAR     48  38  68 S5        29.92S
WICHITA JABRA  CLEAR     50  38  63 S10       29.92S
WINFIELD       CLEAR     51  40  65 E5        29.94F
$$

KSZ007>012-019>026-033>040-048>060-102>105-220500-
NORTHEAST KANSAS

CITY           SKY/WX    TMP DP  RH WIND       PRES   REMARKS
CONCORDIA      CLEAR     56  34  43 S22G29    29.83F
EMPORIA        CLEAR     48  32  53 S9        29.90F
LAWRENCE       CLEAR     40  31  70 CALM      29.89F
MANHATTAN      CLEAR     45  35  68 SW3       29.87F
OLATHE IND     CLEAR     51  37  58 S5        29.91S
OLATHE EXE     CLEAR     49  40  71 S3        29.90S
SALINA         CLEAR     53  37  54 S10       29.87S
TOPEKA BILLARD CLEAR     50  36  58 S3        29.88F
TOPEKA FORBES  CLEAR     43  33  68 S8        29.88F
$$



USA.gov is the U.S. government's official web portal to all federal, state and local government web resources and services.